This demonstration page uses our WeatherBlox Daily Observations layout. Learn more.

Left ArrowRight Arrow

Hourly Observations for January 12, 2016

Temp ( °F °C ) Dew Point ( °F °C ) Humidity (%) Winds ( mph kmh ) Pressure ( in mb ) Visibility ( mi km ) Precip ( " mm )
12:54 am 00:54 Cloudy 30 -1.1 23 -5 75 75 N 18 30 30.04 1017 10 16 0.00 0.00
1:22 am 01:22 Cloudy 28 -2 19 -7 69 69 N 22 35 30.12 1020 10 16 0.00 0.00
1:54 am 01:54 Cloudy 26 -3.3 20 -6.7 78 78 N 17 28 30.09 1019 10 16 0.00 0.00
2:06 am 02:06 Cloudy 25 -3.9 19 -7.2 78 78 N 15 24 30.15 1021 10 16 0.00 0.00
2:54 am 02:54 Cloudy 21 -6.1 15 -9.4 78 78 N 14 22 30.14 1021 10 16 0.00 0.00
3:54 am 03:54 Mostly Cloudy 17 -8.3 11 -11.7 77 77 N 20 31 30.18 1022 9 14 0.00 0.00
4:54 am 04:54 Partly Cloudy 15 -9.4 6 -14.4 67 67 N 21 33 30.23 1024 10 16 0.00 0.00
5:54 am 05:54 Clear 12 -11.1 4 -15.6 70 70 N 17 28 30.26 1025 10 16 0.00 0.00
6:54 am 06:54 Clear 9 -12.8 3 -16.1 77 77 N 6 9 30.30 1026 10 16 0.00 0.00
7:54 am 07:54 Sunny 10 -12.2 3 -16.1 73 73 N 7 11 30.33 1027 9 14 0.00 0.00
8:54 am 08:54 Sunny 10 -12.2 2 -16.7 69 69 N 12 19 30.33 1027 10 16 0.00 0.00
9:54 am 09:54 Sunny 12 -11.1 3 -16.1 67 67 N 10 17 30.35 1028 10 16 0.00 0.00
10:54 am 10:54 Sunny 14 -10 4 -15.6 64 64 N 9 15 30.39 1029 10 16 0.00 0.00
11:54 am 11:54 Sunny 16 -8.9 6 -14.4 65 65 N 6 9 30.36 1028 10 16 0.00 0.00
12:54 pm 12:54 Sunny 19 -7.2 8 -13.3 62 62 NNE 5 7 30.33 1027 10 16 0.00 0.00
1:54 pm 13:54 Cloudy 19 -7.2 8 -13.3 62 62 N 3 6 30.31 1027 10 16 0.00 0.00
2:54 pm 14:54 Cloudy 20 -6.7 9 -12.8 62 62 Calm 30.30 1026 10 16 0.00 0.00
3:54 pm 15:54 Cloudy 20 -6.7 10 -12.2 65 65 W 5 7 30.29 1026 10 16 0.00 0.00
4:54 pm 16:54 Cloudy 20 -6.7 11 -11.7 68 68 Calm 30.29 1026 9 14 0.00 0.00
5:46 pm 17:46 Cloudy 21 -6 12 -11 68 68 S 6 9 30.30 1026 10 16 0.00 0.00
5:54 pm 17:54 Cloudy 21 -6.1 12 -11.1 68 68 SSW 6 9 30.28 1025 10 16 0.00 0.00
6:31 pm 18:31 Partly Cloudy 19 -7.2 12 -11.1 74 74 S 5 7 30.33 1027 9 14 0.00 0.00
6:54 pm 18:54 Clear 17 -8.3 11 -11.7 77 77 SSE 6 9 30.27 1025 9 14 0.00 0.00
7:54 pm 19:54 Clear 17 -8.3 12 -11.1 80 80 SSE 9 15 30.25 1024 9 14 0.00 0.00
8:54 pm 20:54 Clear 19 -7.2 13 -10.6 77 77 S 10 17 30.22 1023 9 14 0.00 0.00
9:54 pm 21:54 Clear 19 -7.2 14 -10 81 81 S 6 9 30.19 1022 10 16 0.00 0.00
10:54 pm 22:54 Clear 19 -7.2 14 -10 81 81 SSE 6 9 30.18 1022 10 16 0.00 0.00
11:54 pm 23:54 Clear 19 -7.2 14 -10 81 81 SSE 5 7 30.16 1021 10 16 0.00 0.00

Powered by AerisWeather